Simultaneous Nadir Overpasses (SNOs) Predictions

Prediction of SNOs between LANDSAT-8 and NPP Satellite Orbit:

Table of predicted SNOs for the next 14.0 days since TLE Epoch: 1/19/2014
Index Date (LANDSAT-8) Time (LANDSAT-8) Lat,Lon (LANDSAT-8) SZA (LANDSAT-8 ) Date (NPP) Time (NPP) Lat,Lon (NPP) SZA (NPP ) Distance(km) Time Diff (sec)
1 01/19/2014 13:53:36 -70.25, 148.45 89.50 01/19/2014 13:52:57 -70.24, 148.37 89.50 3.04 39
2 01/19/2014 14:43:04 70.10, -44.12 90.36 01/19/2014 14:43:41 70.10, -44.11 90.36 0.53 37
3 01/22/2014 05:20:31 70.73, 97.39 90.39 01/22/2014 05:19:21 70.74, 96.01 90.46 50.64 70
4 01/22/2014 06:10:09 -70.18, -95.79 90.15 01/22/2014 06:09:54 -70.20, -95.79 90.13 1.94 15
5 01/22/2014 06:59:36 70.08, 71.72 89.76 01/22/2014 07:00:38 70.06, 71.73 89.73 2.42 62
6 01/24/2014 21:37:12 70.28,-147.42 89.34 01/24/2014 21:36:09 70.29,-147.48 89.36 2.25 63
7 01/24/2014 22:26:42 -70.17, 20.05 90.78 01/24/2014 22:26:50 -70.16, 20.05 90.80 1.48 8
8 01/24/2014 23:16:17 69.63,-173.05 88.70 01/24/2014 23:17:27 69.66,-171.89 88.68 45.04 70
9 01/27/2014 13:53:48 70.27, -31.59 88.66 01/27/2014 13:53:06 70.26, -31.65 88.66 3.10 42
10 01/27/2014 14:43:19 -70.11, 135.81 91.51 01/27/2014 14:43:47 -70.12, 135.88 91.50 2.70 28
11 01/30/2014 06:10:27 70.22, 84.16 87.90 01/30/2014 06:10:03 70.23, 84.16 87.92 1.66 24
12 01/30/2014 06:59:57 -70.11,-108.35 92.22 01/30/2014 07:00:44 -70.09,-108.30 92.25 3.01 47
13 02/01/2014 21:37:34 -70.64, 32.97
